Terminal Aerodrome Forecast
Issued by NWS

Home | Current Version | Previous Version | Text Only | Print | Product List | Glossary On
Versions: 1 2 3 4 5 6 7 8 9 10 11 12 13 14 15 16 17 18 19 20 21 22 23 24 25 26 27 28 29 30 31 32 33 34 35 36 37 38 39 40 41 42 43 44 45 46 47 48
000
FTUS41 KRNK 200647 AAA
TAFBCB
TAF AMD
KBCB 200647Z 2007/2106 11004KT 6SM BR SCT012 OVC045
     FM200900 00000KT 2SM BR OVC003
     FM201300 VRB03KT 5SM BR BKN007
     FM201500 15003KT P6SM SCT025
     FM201800 13005KT P6SM SCT035=

USA.gov is the U.S. government's official web portal to all federal, state and local government web resources and services.